Theta_e
322 313 309 309 298 297 292 295 299 301 303 306 311 309 308 312 307 300 327 332 336 337 341 342 346 347 346 346 347 348 348 347 345 343 340 339 338 338 338 337 338 338 338 339 341 340 340 339 338
313 312 310 303 294 289 293 297 300 302 308 314 312 311 312 307 320 324 326 334 336 338 339 339 342 346 346 346 347 348 348 347 344 343 340 338 337 337 337 337 337 338 338 340 340 339 340 339 338
310 310 306 298 291 290 292 298 303 305 308 307 311 315 314 312 320 324 327 334 336 336 337 337 341 345 345 346 347 348 347 347 344 342 340 337 337 337 337 336 336 338 338 339 338 339 338 338 336
307 308 305 297 294 294 295 300 304 305 305 311 312 309 316 322 325 326 332 333 333 334 335 338 342 344 346 346 346 346 346 346 344 342 339 337 337 337 336 335 335 337 337 338 338 337 336 336 335
306 304 298 295 297 296 299 303 304 304 304 306 310 308 311 321 326 328 330 331 332 332 334 336 341 343 345 345 345 345 345 344 344 341 339 338 336 336 335 335 334 335 336 336 335 335 334 334 335
302 301 294 293 297 297 301 304 304 303 303 309 312 310 312 322 324 326 329 328 332 332 333 335 334 338 341 343 344 344 344 343 341 340 339 337 336 335 335 334 333 334 333 333 333 333 332 332 334
299 298 294 294 296 296 300 305 302 303 304 306 316 310 311 317 322 327 327 328 331 332 331 330 331 333 334 337 339 341 342 341 340 340 339 338 337 336 335 335 333 332 331 330 330 330 330 330 331
303 301 296 296 295 297 300 304 304 304 303 311 316 309 310 319 322 325 327 330 333 329 329 327 328 329 330 333 332 335 337 338 338 336 334 332 332 332 331 330 333 331 330 328 328 328 328 328 328
309 298 293 298 298 299 300 300 302 304 305 309 312 316 319 322 323 323 324 327 328 329 326 326 326 327 328 330 327 329 331 331 331 329 326 323 324 324 324 326 331 331 330 329 328 327 326 325 324
306 298 299 302 304 300 301 299 301 303 305 306 310 316 321 321 322 320 321 322 324 326 326 325 325 326 327 331 326 326 326 324 324 323 321 322 321 321 323 320 326 328 328 329 327 326 325 320 316
303 302 304 305 308 307 303 300 302 302 300 307 310 315 318 319 320 320 321 322 323 326 328 326 324 325 326 326 324 323 322 321 321 320 320 321 320 318 318 317 316 315 317 316 318 317 317 316 315
297 302 302 307 308 307 306 302 300 302 304 307 314 320 319 318 319 320 321 322 322 323 326 327 325 325 325 325 323 322 321 319 319 319 321 319 317 316 315 315 314 313 314 314 314 315 315 315 316
299 299 302 305 305 306 306 303 299 300 304 307 319 321 319 319 320 322 324 324 324 322 324 326 325 324 325 324 323 321 320 320 319 320 321 320 318 316 315 314 314 314 314 314 313 314 314 314 315
303 304 304 306 305 308 303 301 301 301 304 315 319 319 320 319 320 321 323 324 323 324 324 326 325 324 324 324 323 323 321 321 320 319 320 320 319 317 316 315 315 315 315 313 313 313 313 313 313
304 301 304 306 307 303 303 299 297 302 301 313 316 318 320 321 320 320 321 324 325 325 326 325 325 325 324 324 324 324 323 323 321 320 320 320 320 318 318 317 316 315 315 313 311 312 312 311 312
298 298 294 304 308 309 303 296 300 301 299 301 313 314 318 320 322 323 323 322 327 326 325 326 328 325 324 324 323 324 324 323 322 321 321 321 320 320 318 317 316 316 314 313 311 311 311 311 311
298 294 295 298 307 306 303 298 304 304 299 298 303 313 316 318 319 323 325 323 324 327 325 325 327 326 325 324 324 324 324 322 322 321 321 321 321 321 319 318 317 317 315 313 312 312 312 312 315
294 294 294 294 302 305 297 295 300 299 301 301 299 304 312 316 318 323 325 325 323 326 326 326 326 327 326 326 324 323 322 323 322 323 322 322 322 321 320 318 317 316 314 313 312 312 313 318 317
297 294 296 298 303 300 299 299 302 303 296 296 297 297 303 311 319 321 322 325 322 323 323 325 325 326 326 324 323 323 322 322 321 323 323 322 323 321 320 318 317 316 315 315 314 316 317 316 317
295 295 295 299 301 299 297 298 301 303 303 298 299 298 297 301 309 316 320 321 322 321 322 324 325 326 326 327 327 326 325 323 325 323 323 324 323 323 321 319 317 316 315 314 314 317 315 315 316
292 294 295 296 298 297 296 294 297 303 304 306 303 302 302 300 301 309 316 319 322 321 321 322 324 325 326 326 327 321 322 318 319 321 323 323 323 322 322 320 319 318 317 316 314 314 315 310 311
290 295 295 295 294 290 296 288 294 299 302 304 304 304 304 301 302 304 311 316 320 321 323 323 323 324 325 326 324 323 323 321 322 323 323 324 323 323 322 322 321 320 318 317 316 315 314 313 315
293 296 295 296 293 290 291 288 289 298 297 301 304 304 304 303 304 302 307 314 319 321 322 322 322 324 324 325 325 323 322 323 322 320 320 321 321 322 322 322 321 320 319 319 317 312 314 317 317
297 295 293 292 290 283 290 289 290 293 296 298 302 305 305 303 302 302 306 311 315 319 321 322 321 322 323 324 324 323 322 322 320 319 320 320 321 321 321 322 322 321 322 322 321 319 317 318 318
296 292 284 281 281 282 285 288 291 295 295 296 300 301 301 302 302 300 302 306 312 315 318 321 321 320 321 322 322 323 323 322 321 319 320 319 319 317 320 321 321 322 324 324 323 321 319 319 318
292 292 285 278 278 280 283 284 290 296 300 301 298 298 299 298 300 299 301 305 310 314 317 320 320 321 320 321 321 322 323 323 322 322 321 321 321 321 321 322 323 323 325 325 324 323 320 320 319
289 287 293 286 280 279 280 283 290 292 292 294 297 299 299 299 297 298 299 304 309 313 316 318 320 321 322 321 322 322 322 322 322 322 322 322 322 321 322 323 324 325 325 325 324 323 321 319 319
292 293 286 287 278 278 282 280 286 288 290 293 293 295 298 297 295 297 298 302 308 312 315 317 319 320 321 323 323 323 323 323 323 321 320 321 321 322 324 324 325 324 323 322 321 319 318 317 315
289 288 290 290 286 281 278 283 290 293 295 296 294 294 295 297 294 296 297 300 306 310 313 315 316 318 319 320 321 322 322 322 323 320 321 322 322 323 322 321 320 319 316 316 317 316 315 315 312
293 290 290 284 281 284 279 285 290 288 288 290 290 290 291 294 295 293 293 294 301 306 309 312 315 316 317 318 319 319 318 317 318 319 315 317 318 315 316 315 314 311 308 310 311 310 309 310 308
Wind_Speed
8 7 1 5 5 6 1 2 1 2 3 1 3 3 6 4 1 3 2 4 9 6 5 6 9 10 9 9 11 12 12 15 17 16 14 15 15 16 15 15 14 15 16 17 17 17 16 18 17
6 5 5 3 6 3 4 2 4 1 4 9 5 4 5 2 3 5 5 4 7 7 5 6 8 10 9 10 10 10 13 14 16 15 14 14 14 14 15 15 14 14 15 17 16 17 17 16 17
3 5 4 5 3 3 4 3 5 3 6 1 4 5 3 2 2 7 4 8 7 7 6 6 9 10 10 9 9 10 12 14 15 15 14 13 13 14 14 14 13 14 15 15 16 16 17 16 15
5 6 5 4 2 3 4 6 5 6 3 4 4 6 2 3 8 6 9 8 8 6 7 8 9 10 13 12 11 11 12 15 16 15 13 12 13 13 13 13 12 12 13 14 14 15 15 15 15
5 4 4 2 4 3 2 4 5 5 4 3 2 4 2 3 7 13 10 8 10 6 6 6 10 10 12 13 13 12 13 14 13 13 13 13 12 12 12 12 11 12 12 12 12 13 15 13 13
4 3 4 1 4 6 1 4 4 3 3 4 6 5 3 6 11 8 8 7 6 8 5 6 8 8 9 10 12 12 13 14 14 13 12 12 11 11 11 11 11 11 10 10 11 12 13 14 12
4 3 4 2 3 3 3 6 4 6 6 4 9 5 0 3 6 8 7 7 5 5 6 5 5 7 8 9 9 11 11 12 12 11 11 10 9 9 9 9 10 10 9 9 10 10 12 13 11
4 3 3 4 3 3 2 5 3 7 5 3 2 6 5 8 9 8 7 8 10 5 6 5 5 5 5 5 9 9 10 10 10 9 10 10 10 9 8 6 7 9 9 9 9 10 10 11 10
1 3 2 4 5 3 2 3 1 1 7 1 2 7 4 16 11 9 8 9 10 6 6 6 5 5 5 5 5 7 8 8 9 8 7 6 4 5 5 4 5 6 6 7 7 7 8 8 10
5 3 6 5 3 1 4 3 3 3 4 1 2 1 12 18 16 15 13 14 14 14 9 6 6 6 6 4 5 5 5 4 4 5 5 4 4 3 4 2 4 4 4 3 4 5 7 7 4
4 7 2 4 1 5 4 2 5 4 3 8 11 9 16 15 15 15 13 15 16 15 11 9 7 6 6 5 4 2 2 3 3 6 4 4 3 3 2 1 1 1 3 3 4 4 3 4 2
6 6 4 1 3 4 4 7 5 6 6 5 9 18 18 18 18 17 15 13 14 13 14 11 9 8 7 4 4 4 3 3 3 4 5 4 3 2 2 2 1 0 0 1 2 1 1 1 2
3 5 6 3 2 4 4 8 6 6 8 2 9 13 21 20 18 14 13 10 11 12 13 12 11 10 8 7 5 4 4 4 5 5 4 4 4 4 3 3 3 2 1 2 2 1 0 1 1
3 5 4 2 1 3 3 6 6 7 7 6 10 14 17 18 20 13 13 14 14 13 13 13 12 11 9 8 8 7 4 5 4 4 5 6 4 4 4 4 4 3 3 2 2 2 2 2 2
3 4 5 7 5 3 2 5 7 9 5 8 10 12 13 16 12 19 20 18 18 15 14 14 13 11 11 11 9 6 6 6 5 4 6 7 6 6 5 4 4 4 4 4 2 2 1 2 2
2 1 3 4 9 6 7 10 8 9 7 10 11 9 12 14 16 17 15 15 15 14 15 14 12 13 12 11 8 6 6 6 5 5 5 7 7 7 5 4 4 4 4 4 3 2 2 2 2
1 4 6 8 6 5 10 6 17 11 9 11 10 12 12 12 11 14 15 14 15 16 15 14 13 13 14 11 7 7 7 6 6 5 6 8 8 7 6 6 4 4 3 3 3 3 2 2 3
6 4 4 5 4 8 7 11 11 7 9 16 10 11 13 15 21 20 17 16 14 15 14 14 12 14 12 9 6 4 4 5 5 7 7 7 7 8 6 4 5 4 3 3 2 4 3 3 3
2 5 6 4 7 4 9 11 19 14 8 10 10 9 13 16 22 14 16 15 11 13 14 16 16 15 11 8 9 8 9 6 5 7 9 8 8 8 7 4 5 4 5 6 5 3 4 3 2
4 3 4 6 8 3 7 14 13 13 12 12 16 13 12 14 15 13 16 16 16 18 18 17 17 17 15 11 9 8 7 5 7 5 6 9 8 8 7 6 6 7 5 6 6 5 3 3 3
6 13 9 5 4 2 5 18 12 16 15 17 16 16 16 17 18 15 15 18 20 20 20 19 20 19 17 16 9 3 3 2 3 5 7 8 8 8 8 8 7 7 6 6 6 7 7 4 2
12 6 3 3 2 5 4 16 11 9 19 21 21 21 20 18 18 18 17 17 19 21 18 20 18 19 16 16 13 16 13 13 11 10 8 8 10 10 10 10 10 9 7 7 7 6 5 4 7
6 5 9 8 9 1 7 8 6 15 24 20 20 24 24 25 22 19 19 21 20 19 19 18 18 17 16 16 17 14 12 10 6 5 8 10 8 11 11 10 9 9 7 8 8 5 7 7 6
7 4 4 3 4 8 13 11 21 15 21 9 15 22 22 21 20 19 19 17 15 16 16 16 17 17 17 18 18 18 17 13 9 8 8 7 7 7 9 10 9 9 9 10 9 11 11 10 9
7 6 5 5 7 10 4 13 30 10 9 8 13 16 16 18 18 17 18 16 17 17 17 15 18 19 19 19 19 18 18 16 14 11 9 8 6 4 8 10 9 9 11 11 10 10 10 10 10
16 17 4 6 6 6 2 12 15 11 14 15 12 11 9 11 13 16 19 19 18 18 20 20 19 18 18 19 20 18 17 11 12 11 9 8 8 7 8 10 10 11 11 11 10 7 8 8 9
7 12 17 9 0 1 5 11 13 10 12 10 13 14 17 15 13 15 15 16 17 17 21 22 20 19 18 20 17 17 15 15 12 11 9 8 8 7 8 10 11 11 11 10 9 7 8 6 5
14 1 5 9 12 14 9 9 15 4 7 11 16 19 16 10 10 12 13 17 17 17 18 19 20 21 18 19 16 14 15 14 11 9 11 10 9 9 9 9 9 9 8 7 5 4 4 5 4
7 6 9 3 5 7 9 13 8 15 17 18 11 11 9 9 11 11 11 14 15 14 15 17 17 17 16 16 16 14 13 13 12 11 11 11 8 9 8 7 6 6 5 5 4 4 5 6 5
12 22 12 5 9 5 2 23 7 8 9 8 13 10 11 9 10 9 9 8 8 11 13 16 16 15 16 15 14 14 11 10 11 11 9 8 9 6 7 7 6 6 6 5 5 5 4 5 5
Wind_Direction
326 330 7 43 52 62 15 226 311 106 98 328 61 141 151 83 156 205 343 129 119 120 123 110 110 110 115 117 118 117 111 112 108 103 97 94 93 93 89 86 84 88 91 98 89 80 75 82 91
320 1 30 77 78 60 275 252 150 170 145 132 99 84 44 113 108 117 107 138 114 125 113 111 112 112 119 123 124 122 114 115 108 106 102 100 98 96 93 87 88 90 98 95 93 83 76 87 88
346 61 52 85 107 157 200 215 165 112 167 240 95 60 119 164 87 152 153 138 122 122 119 125 122 123 129 124 127 114 118 121 115 109 107 104 100 95 94 89 88 94 101 97 93 80 79 86 93
1 14 33 72 169 232 198 186 188 139 138 68 122 69 35 239 157 152 134 132 123 126 126 126 126 134 119 117 116 122 120 118 115 113 110 109 104 97 92 87 89 91 97 96 91 87 82 88 95
23 55 45 22 297 276 234 178 172 139 135 135 128 164 43 21 112 131 137 140 138 135 124 128 133 133 124 120 119 123 123 117 111 111 115 117 116 111 104 96 97 97 98 99 95 87 80 84 95
23 90 48 249 295 309 81 151 157 135 165 147 80 101 160 138 134 152 137 141 140 136 132 130 133 132 127 128 122 120 122 120 121 125 128 129 124 119 112 104 98 100 98 94 87 85 81 79 98
105 80 185 217 277 323 200 146 180 172 151 219 152 106 57 180 158 142 137 130 129 123 124 129 137 140 136 131 128 127 126 129 132 132 129 119 118 105 105 109 108 104 97 89 85 83 79 74 93
108 90 157 205 232 246 281 176 204 163 206 92 148 165 182 196 154 122 121 136 154 130 130 145 144 144 139 139 137 133 132 133 134 126 122 118 117 108 99 83 111 111 103 92 84 78 72 72 71
137 81 225 226 169 238 320 196 134 19 123 112 155 160 220 135 134 126 134 155 169 160 156 154 159 146 142 137 141 132 136 134 130 122 120 108 112 115 110 126 106 107 97 97 84 72 56 46 54
112 147 223 210 193 232 312 175 197 159 129 286 204 51 138 144 159 163 167 172 181 182 181 175 168 165 155 151 146 144 144 139 138 136 140 130 136 140 133 125 110 101 95 73 59 42 40 38 50
170 193 168 247 83 350 327 290 175 157 219 210 195 161 157 161 174 176 182 178 181 184 186 184 176 168 163 152 153 154 149 145 152 161 164 155 135 140 146 121 82 42 52 26 23 22 35 46 44
144 240 215 267 19 332 309 325 314 185 235 278 184 170 158 173 183 186 185 184 179 186 189 184 180 177 174 154 166 164 163 170 169 181 176 160 159 173 173 179 181 151 18 1 21 4 13 40 36
288 197 193 121 355 328 320 265 237 251 249 15 140 166 179 183 191 192 186 186 183 193 191 190 183 181 181 171 170 174 187 181 185 176 194 173 174 183 178 201 187 197 198 214 214 208 245 324 323
328 306 291 221 188 282 247 264 154 266 137 140 167 185 190 192 194 182 186 189 191 191 197 188 191 187 178 185 183 186 182 188 187 192 185 191 180 180 188 189 209 216 209 208 202 204 210 239 254
20 317 296 232 183 230 5 275 223 237 150 176 200 195 199 207 195 201 195 193 191 194 191 193 188 187 185 187 190 185 188 188 192 196 196 188 190 192 187 198 211 215 202 198 196 212 215 270 282
137 243 274 232 177 219 122 253 266 253 177 211 207 215 209 208 206 214 205 206 199 192 190 190 188 190 190 190 189 192 190 189 196 193 193 202 196 192 191 194 208 204 190 185 189 189 236 254 268
214 232 250 308 221 153 172 216 245 223 206 242 209 215 212 225 227 221 215 204 199 196 192 189 184 188 194 191 184 191 195 191 195 189 201 204 201 195 193 197 205 188 188 195 191 207 189 234 249
192 222 211 233 272 227 210 233 247 239 207 236 225 210 212 216 225 217 211 208 199 198 196 192 189 190 190 187 179 183 183 201 192 205 209 202 207 202 201 194 194 177 181 204 200 213 212 233 259
97 210 232 220 239 258 250 247 251 248 234 246 244 217 220 223 229 215 215 210 200 198 194 196 194 193 184 186 188 198 205 201 204 212 205 202 204 204 195 190 185 178 189 202 197 187 217 255 237
252 233 254 305 281 252 275 263 258 256 249 227 244 239 223 231 236 211 208 202 201 199 201 198 201 196 195 198 198 202 190 209 213 204 209 207 203 200 190 187 191 185 191 203 195 179 194 234 198
235 229 231 246 341 272 323 275 248 259 243 249 248 243 237 216 231 225 208 203 206 204 201 201 201 198 198 198 189 136 128 114 184 210 215 210 202 199 196 192 194 197 193 207 200 196 192 206 233
234 191 212 217 124 253 116 283 238 248 249 230 236 237 237 224 227 223 208 211 207 210 203 205 198 198 196 191 186 198 207 215 218 218 212 208 198 208 200 201 200 200 197 206 207 201 204 178 234
242 181 208 218 222 350 224 272 284 210 251 236 226 235 230 230 228 215 207 211 208 204 201 199 198 198 195 189 193 194 203 210 206 191 186 202 199 204 204 201 201 201 200 213 204 183 204 210 221
164 144 47 13 169 229 236 208 263 223 243 237 219 235 231 230 227 216 211 208 208 204 199 193 191 198 193 192 195 198 203 202 199 192 199 202 205 204 202 204 201 202 207 212 209 211 208 215 216
185 162 225 214 224 239 234 202 251 287 275 232 225 238 233 229 227 213 203 197 199 193 193 189 190 198 195 194 195 200 205 203 204 197 199 189 196 188 206 199 200 208 212 210 210 208 219 217 216
212 208 210 233 214 242 137 218 250 237 261 244 237 247 251 226 219 214 211 204 197 192 192 191 191 197 193 195 199 200 205 207 210 202 196 198 200 199 189 201 206 213 216 210 206 215 220 216 218
169 231 238 271 276 221 214 274 289 247 263 256 250 250 247 242 218 213 207 200 197 191 195 193 194 198 192 196 197 202 202 206 206 201 194 198 195 192 196 202 206 211 211 211 200 208 219 212 211
219 55 198 202 246 252 232 250 248 313 259 253 247 247 252 241 230 219 210 203 201 195 195 194 196 194 194 194 198 202 202 201 198 179 190 197 196 197 203 199 199 196 193 193 186 195 191 199 204
180 203 233 245 204 225 253 252 208 236 233 248 255 255 252 232 225 227 219 215 201 193 189 191 193 192 192 193 194 196 200 194 188 186 196 197 192 191 189 184 178 180 182 156 179 198 201 205 195
256 225 214 216 211 239 311 266 192 225 253 244 261 263 268 233 219 203 205 200 194 189 184 188 188 189 193 192 190 196 188 174 180 190 178 172 185 171 167 162 162 144 143 155 174 184 196 191 194